DW9177 Weather Reports


Display with metric or nautical units.
time (UTC)temp
F
wind
direction
speed
MPH
gust
MPH
rain 1hr
in
rain 24hr
in
rain mn
in
humidity
%
barometer
mb
20260505031528 57 32 3.0 6.0 0.06 0.17 0.17 85 1010.0
20260505030018 57 11 1.0 6.0 0.06 0.16 0.16 85 1010.7
20260505024515 58 55 1.0 4.0 0.06 0.14 0.14 83 1010.8
20260505023016 59 91 0.0 6.0 0.07 0.12 0.12 82 1010.8
20260505021512 59 13 0.0 4.0 0.06 0.10 0.10 80 1010.7
20260505020010 59 78 1.0 5.0 0.07 0.10 0.10 82 1010.6
20260505014512 60 30 3.0 7.0 0.06 0.08 0.08 79 1010.1
20260505013003 61 13 1.0 4.0 0.05 0.05 0.05 75 1010.0
20260505011601 62 342 2.0 6.0 0.04 0.04 0.04 76 1009.3
20260505010112 63 356 3.0 7.0 0.03 0.03 0.03 71 1008.8
20260505004554 65 332 2.0 6.0 0.02 0.02 0.02 60 1009.2
20260505003053 67 259 0.0 5.0 0.00 0.00 0.00 56 1009.4
20260505001551 68 325 2.0 8.0 0.00 0.00 0.00 52 1009.1
20260505000054 71 345 3.0 8.0 0.00 0.00 0.00 38 1008.6
20260504234549 72 314 5.0 13.0 0.00 0.00 0.00 33 1008.3
20260504233053 74 230 6.0 21.0 0.00 0.00 0.00 30 1008.5
20260504231546 76 308 7.0 22.0 0.00 0.00 0.00 27 1008.6
20260504230107 77 336 10.0 20.0 0.00 0.00 0.00 26 1008.1
20260504224559 78 316 3.0 13.0 0.00 0.00 0.00 22 1007.7
20260504223046 79 262 6.0 17.0 0.00 0.00 0.00 21 1007.9
20260504221544 79 290 5.0 14.0 0.00 0.00 0.00 21 1008.1
20260504220051 80 277 4.0 15.0 0.00 0.00 0.00 21 1008.0
20260504214546 82 257 4.0 12.0 0.00 0.00 0.00 20 1007.8
20260504213042 82 323 3.0 12.0 0.00 0.00 0.00 19 1007.6
20260504211542 82 262 4.0 10.0 0.00 0.00 0.00 19 1007.7
20260504210052 83 278 0.0 3.0 0.00 0.00 0.00 19 1008.1
20260504204546 82 186 1.0 5.0 0.00 0.00 0.00 19 1008.0
20260504203042 82 253 3.0 8.0 0.00 0.00 0.00 20 1008.2
20260504201538 82 283 3.0 10.0 0.00 0.00 0.00 21 1008.3
20260504200048 81 263 1.0 8.0 0.00 0.00 0.00 21 1008.3
20260504194536 82 334 3.0 5.0 0.00 0.00 0.00 20 1008.2
20260504193032 81 273 0.0 4.0 0.00 0.00 0.00 21 1008.3
20260504191530 80 208 0.0 6.0 0.00 0.00 0.00 22 1008.5
20260504190028 79 245 2.0 5.0 0.00 0.00 0.00 24 1008.4
20260504184533 80 283 1.0 5.0 0.00 0.00 0.00 25 1008.9
20260504183031 79 150 2.0 4.0 0.00 0.00 0.00 25 1009.0
20260504181521 78 145 1.0 8.0 0.00 0.00 0.00 26 1009.3
20260504180022 78 236 2.0 8.0 0.00 0.00 0.00 26 1009.2
20260504174517 77 255 3.0 11.0 0.00 0.00 0.00 27 1009.4
20260504173016 76 255 3.0 11.0 0.00 0.00 0.00 27 1009.3
20260504171515 76 226 4.0 12.0 0.00 0.00 0.00 27 1009.4
20260504150104 74 231 1.0 7.0 0.00 0.00 0.00 34 1009.6
20260504081525 66 200 0.0 0.0 0.00 0.00 0.00 36 1007.4
20260504044552 75 225 4.0 9.0 0.00 0.00 0.00 28 1008.2
20260504043110 75 278 4.0 13.0 0.00 0.00 0.00 27 1008.1
20260504041549 75 267 4.0 11.0 0.00 0.00 0.00 26 1008.0
20260504040049 75 258 0.0 6.0 0.00 0.00 0.00 25 1007.6
20260504034552 76 268 1.0 5.0 0.00 0.00 0.00 24 1007.1
20260504033050 76 221 1.0 7.0 0.00 0.00 0.00 23 1007.0